Location: Aufkirchen
(47.9603°N, 11.3653°E)
Time: 15:01:49
(UTC+01:00)

Transit 2A Rocket - Pass Details

Date: 10 December 2020
Orbit: 592 x 910 km, 66.7° (Epoch: 21 January)

Event Time Altitude Azimuth Distance (km) Brightness Sun altitude
Rises 05:19:50 0° 325° (NW) 3,223 - -24.6°
Reaches altitude 10° 05:23:52 10° 355° (N) 2,210 - -24.0°
Exits shadow 05:24:07 11° 358° (N) 2,170 7.2 -23.9°
Maximum altitude 05:25:54 12° 20° (NNE) 2,011 7.3 -23.6°
Drops below altitude 10° 05:27:54 10° 44° (NE) 2,125 7.7 -23.3°
Sets 05:31:35 0° 75° (ENE) 2,965 9.2 -22.7°
